Location: Newark
(25.1500°N, 87.0200°E)
Time: 22:16:38
(UTC+00:00)

ISS - Visible Passes

Search period start: 07 December 2019 00:00
Search period end: 17 December 2019 00:00
Orbit: 411 x 421 km, 51.6° (Epoch: 08 December)

Date Brightness Start Highest point End Pass type
(mag) Time Alt. Az. Time Alt. Az. Time Alt. Az.
10 Dec -2.0 12:52:37 10° NNW 12:54:07 23° NNW 12:54:07 23° NNW visible
11 Dec -2.5 12:04:35 10° N 12:07:19 22° NE 12:09:15 14° E visible
11 Dec -0.5 13:41:30 10° W 13:42:17 14° W 13:42:17 14° W visible
12 Dec -2.3 12:52:22 10° WNW 12:55:31 38° SW 12:58:18 12° SSE visible
13 Dec -3.8 12:03:43 10° NW 12:07:04 89° SW 12:10:25 10° SE visible
15 Dec -0.7 12:04:03 10° WNW 12:06:35 20° SW 12:09:08 10° S visible
